Location: Baltimore
(39.2900°N, 76.6130°W)
Time: 09:21:26
(UTC-05:00)

BlueWalker 3 - Visible Passes

Search period start: 08 December 2025 00:00
Search period end: 18 December 2025 00:00
Orbit: 455 x 462 km, 53.2° (Epoch: 07 December)

Date Brightness Start Highest point End Pass type
(mag) Time Alt. Az. Time Alt. Az. Time Alt. Az.
08 Dec 1.7 17:44:54 10° NW 17:48:31 60° NE 17:51:51 11° ESE visible
08 Dec 4.7 19:23:38 10° W 19:25:39 14° SW 19:25:44 14° SW visible
09 Dec 2.1 17:10:08 10° NW 17:13:39 46° NE 17:17:09 10° ESE visible
09 Dec 4.4 18:48:18 10° W 18:50:55 19° SW 18:53:32 10° S visible
10 Dec 4.1 18:13:08 10° WNW 18:16:09 25° SW 18:19:10 10° S visible
11 Dec 3.7 17:38:04 10° WNW 17:41:22 33° SW 17:44:38 10° SSE visible
